Terminal Aerodrome Forecast
Issued by NWS Rapid City, SD

Home | Current Version | Previous Version | Graphics & Text | Print | Product List | Glossary On
Versions: 1 2 3 4 5 6 7 8 9 10 11 12 13 14
000
FTUS43 KUNR 250800 AAA
TAFRAP
TAF AMD
KRAP 250829Z 2508/2606 35011KT P6SM BKN025 OVC050
      TEMPO 2508/2511 2SM -SN OVC025
     FM251100 35015KT P6SM OVC015
     FM251400 35020KT 3/4SM -SN BR VV007=

USA.gov is the U.S. government's official web portal to all federal, state and local government web resources and services.